Regional Weather Roundup
Issued by NWS

Home | Current Version | Previous Version | Graphics & Text | Print | Product List | Glossary On
Versions: 1 2 3 4 5 6 7 8 9 10 11 12 13 14 15 16 17 18 19 20 21 22 23 24 25 26 27 28 29 30 31 32 33 34 35 36 37 38 39 40 41 42 43 44 45 46 47 48 49 50
000
ASUS43 KBIS 140859
RWRND

NORTH DAKOTA REGIONAL WEATHER ROUNDUP
NATIONAL WEATHER SERVICE BISMARCK ND
400 AM CDT MON JUL 14 2014

NOTE: "FAIR" INDICATES FEW OR NO CLOUDS BELOW 12,000 FEET WITH NO
SIGNIFICANT WEATHER AND/OR OBSTRUCTIONS TO VISIBILITY.


NDZ001>003-009>011-017-141000-
NORTHWEST NORTH DAKOTA

CITY           SKY/WX    TMP DP  RH WIND       PRES   REMARKS
WILLISTON      CLEAR     51  45  79 NE5       30.25R
MINOT          PTCLDY    52  45  77 NW13      30.17R
$$

NDZ018>021-031>035-040>046-141000-
SOUTHWEST NORTH DAKOTA

CITY           SKY/WX    TMP DP  RH WIND       PRES   REMARKS
BISMARCK       CLEAR     55  46  71 N10       30.16R
GARRISON         N/A     50  47  89 NW10      30.18R
HETTINGER ARPT CLEAR     46  41  82 NW7       30.22R
$$

NDZ004>008-012>016-024-026-027-054-141000-
NORTHEAST NORTH DAKOTA

CITY           SKY/WX    TMP DP  RH WIND       PRES   REMARKS
GRAND FORKS    MOCLDY    50  47  89 N17G24    30.01R
DEVILS LAKE    CLOUDY    54  45  71 N20       30.07R
$$

NDZ022-023-025-028>030-036>039-047>053-141000-
SOUTHEAST NORTH DAKOTA

CITY           SKY/WX    TMP DP  RH WIND       PRES   REMARKS
FARGO          CLOUDY    56  47  71 NW22G31   29.99R
$$



USA.gov is the U.S. government's official web portal to all federal, state and local government web resources and services.